User: anonymous   Login
Location: Unspecified
(0.0000°N, 0.0000°E)
Time: 00:27:12
(UTC+00:00)
Language:

MERIDIAN 2 - Orbit

View from above orbital plane
View from above orbital plane
View from above satellite
View from above satellite

Ground track
Ground track

The orbit data is extracted from the following two-line orbital elements,

1 35008U 09029A   18168.12853229 -.00000066 +00000-0 +63104-4 0  9993
2 35008 064.1264 341.3638 7250042 251.1903 023.0398 02.24497252074261
Epoch (UTC): 17 June 2018 03:05:05
Eccentricity: 0.7250042
inclination: 64.1264°
perigee height: 397 km
apogee height: 36121 km
right ascension of ascending node: 341.3638°
argument of perigee: 251.1903°
revolutions per day: 2.24497252
mean anomaly at epoch: 23.0398°
orbit number at epoch: 7426

The dashed part of the orbit path shows where the satellite is in the earth's shadow,  

DLR